{"data":{"norad_id":62655,"intl_designator":"2025-009AY","name":"TRANSPORTER-12 OBJECT AY","alt_names":[],"object_type":"PAYLOAD","status":"ACTIVE","operator":null,"country":"TBD","launch_date":"2025-01-14","launch_site_code":"AFWTR","launch_vehicle":null,"mission":null,"orbit_class":"UNKNOWN","rcs_meters":null,"size_class":null,"mass_kg":null,"dimensions":null,"purposes":[],"wikipedia_slug":null,"has_3d_model":false,"image_url":null,"decayed_at":null,"tle_current":{"epoch":"2026-05-24T23:18:22.371264Z","epoch_age_seconds":77575,"freshness":"FRESH","line1":"1 62655U 25009AY  26144.97109226  .00024220  00000+0  60573-3 0  9996","line2":"2 62655  97.4033 231.0981 0001137  65.4472 294.6892 15.40114437 75626","mean_motion":15.40114437,"eccentricity":0.0001137,"inclination_deg":97.4033,"raan_deg":231.0981,"arg_perigee_deg":65.4472,"mean_anomaly_deg":294.6892,"bstar":0.00060573,"rev_number":7562,"period_min":93.499545579547,"perigee_km":444.99538856255,"apogee_km":446.54714530245,"semimajor_km":6823.9082669325,"source":"CELESTRAK","updated_at":"2026-05-25T13:38:03.160177Z"}}}